RYR80TJ EBCI-LFTW

Flight info

Callsign RYR80TJ
Flight time 1h 14m
Altitude 31000
Route CIV N872 LESDO DCT KOVIN DCT DUCRA/N0460F330 UM728 RESMI UN857 DISAK DCT DIRMO DCT ETAMO DCT ADEKA DCT MOKDI DCT MEN/N0396F190 Y25 FJR
Aircraft B738/M-SDE2E3FGHIRWXY/LB1

Departure

Time 2026-04-26 12:54
Airport Brussels South Charleroi Airport (EBCI)

Arrival

Time 2026-04-26 14:08
Airport Nîmes-Arles-Camargue Airport (LFTW)
Time Latitude Longitude Altitude Speed Heading
2026-04-26 12:25 50.46957 4.47401 611 ft 0 kts 335°
2026-04-26 12:41 50.46953 4.47403 630 ft 2 kts 335°
2026-04-26 12:41 50.46938 4.47415 624 ft 2 kts 334°
2026-04-26 12:42 50.46923 4.47427 619 ft 2 kts 329°
2026-04-26 12:42 50.46912 4.47444 623 ft 2 kts 264°
2026-04-26 12:42 50.46917 4.47468 618 ft 2 kts 246°
2026-04-26 12:42 50.46924 4.47490 620 ft 1 kts 245°
2026-04-26 12:43 50.46925 4.47495 621 ft 0 kts 245°
2026-04-26 12:47 50.46920 4.47476 619 ft 6 kts 246°
2026-04-26 12:47 50.46886 4.47359 613 ft 16 kts 245°
2026-04-26 12:47 50.46836 4.47188 616 ft 17 kts 245°
2026-04-26 12:47 50.46787 4.47018 614 ft 17 kts 245°
2026-04-26 12:48 50.46738 4.46851 619 ft 16 kts 245°
2026-04-26 12:48 50.46691 4.46691 620 ft 16 kts 248°
2026-04-26 12:48 50.46641 4.46543 617 ft 15 kts 217°
2026-04-26 12:48 50.46542 4.46542 617 ft 15 kts 213°
2026-04-26 12:49 50.46485 4.46380 619 ft 22 kts 245°
2026-04-26 12:49 50.46413 4.46133 616 ft 26 kts 245°
2026-04-26 12:49 50.46338 4.45875 620 ft 25 kts 245°
2026-04-26 12:49 50.46270 4.45640 619 ft 23 kts 245°
2026-04-26 12:50 50.46204 4.45415 614 ft 22 kts 245°
2026-04-26 12:50 50.46139 4.45189 614 ft 24 kts 245°
2026-04-26 12:50 50.46067 4.44943 618 ft 24 kts 245°
2026-04-26 12:50 50.46014 4.44793 612 ft 7 kts 221°
2026-04-26 12:51 50.45995 4.44776 612 ft 4 kts 203°
2026-04-26 12:51 50.45942 4.44779 623 ft 12 kts 159°
2026-04-26 12:51 50.45869 4.44836 620 ft 8 kts 137°
2026-04-26 12:51 50.45869 4.44879 621 ft 0 kts 68°
2026-04-26 12:53 50.45892 4.44962 619 ft 32 kts 66°
2026-04-26 12:53 50.46096 4.45664 612 ft 109 kts 65°
2026-04-26 12:53 50.46515 4.47087 664 ft 168 kts 64°
2026-04-26 12:54 50.46999 4.48764 1479 ft 173 kts 64°
2026-04-26 12:54 50.47574 4.50434 2445 ft 179 kts 47°
2026-04-26 12:54 50.48529 4.51817 3120 ft 196 kts 45°
2026-04-26 12:54 50.49535 4.53439 3538 ft 217 kts 45°
2026-04-26 12:55 50.50633 4.55260 3805 ft 238 kts 46°
2026-04-26 12:55 50.51740 4.57252 4397 ft 248 kts 57°
2026-04-26 12:55 50.52246 4.59932 4883 ft 267 kts 93°
2026-04-26 12:55 50.51646 4.62699 5666 ft 274 kts 127°
2026-04-26 12:56 50.50182 4.64547 6485 ft 278 kts 156°
2026-04-26 12:56 50.48296 4.65246 7316 ft 281 kts 179°
2026-04-26 12:56 50.46373 4.64710 8116 ft 285 kts 205°
2026-04-26 12:56 50.44781 4.62858 8884 ft 289 kts 226°
2026-04-26 12:57 50.43399 4.60558 9718 ft 291 kts 228°
2026-04-26 12:57 50.42019 4.58203 10487 ft 295 kts 228°
2026-04-26 12:57 50.40587 4.55772 10856 ft 315 kts 228°
2026-04-26 12:58 50.37352 4.50385 11216 ft 361 kts 227°
2026-04-26 12:58 50.35564 4.47451 11457 ft 379 kts 227°
2026-04-26 12:58 50.33716 4.44441 11997 ft 386 kts 227°
2026-04-26 12:58 50.31837 4.41397 12689 ft 389 kts 227°
2026-04-26 12:59 50.29944 4.38343 13360 ft 393 kts 227°
2026-04-26 12:59 50.28053 4.35298 13985 ft 397 kts 227°
2026-04-26 12:59 50.26118 4.32186 14577 ft 401 kts 227°
2026-04-26 12:59 50.24168 4.29065 15213 ft 403 kts 227°
2026-04-26 13:00 50.22206 4.25915 15849 ft 405 kts 227°
2026-04-26 13:00 50.20227 4.22739 16487 ft 408 kts 227°
2026-04-26 13:00 50.18235 4.19550 17088 ft 412 kts 227°
2026-04-26 13:00 50.16224 4.16336 17674 ft 415 kts 227°
2026-04-26 13:01 50.14192 4.13092 18254 ft 418 kts 228°
2026-04-26 13:01 50.12153 4.09844 18785 ft 421 kts 228°
2026-04-26 13:01 50.10124 4.06611 19280 ft 423 kts 228°
2026-04-26 13:01 50.08053 4.03322 19778 ft 426 kts 228°
2026-04-26 13:02 50.06074 4.00180 20238 ft 428 kts 228°
2026-04-26 13:02 50.03980 3.96860 20706 ft 431 kts 227°
2026-04-26 13:02 50.01870 3.93521 21160 ft 433 kts 227°
2026-04-26 13:02 49.99752 3.90171 21619 ft 436 kts 227°
2026-04-26 13:03 49.97613 3.86792 22061 ft 438 kts 227°
2026-04-26 13:03 49.95466 3.83406 22488 ft 441 kts 227°
2026-04-26 13:03 49.93307 3.80007 22904 ft 444 kts 227°
2026-04-26 13:03 49.91134 3.76588 23310 ft 446 kts 227°
2026-04-26 13:04 49.88973 3.73193 23715 ft 449 kts 227°
2026-04-26 13:04 49.86770 3.69737 24057 ft 451 kts 227°
2026-04-26 13:04 49.84554 3.66265 24384 ft 454 kts 227°
2026-04-26 13:04 49.82328 3.62784 24715 ft 456 kts 227°
2026-04-26 13:05 49.80087 3.59284 25036 ft 458 kts 227°
2026-04-26 13:05 49.77835 3.55771 25359 ft 460 kts 227°
2026-04-26 13:05 49.75573 3.52246 25668 ft 462 kts 228°
2026-04-26 13:05 49.73299 3.48709 25968 ft 464 kts 228°
2026-04-26 13:06 49.71016 3.45162 26262 ft 466 kts 228°
2026-04-26 13:06 49.68750 3.41648 26551 ft 468 kts 228°
2026-04-26 13:06 49.66449 3.38084 26835 ft 470 kts 228°
2026-04-26 13:06 49.64134 3.34503 27183 ft 470 kts 228°
2026-04-26 13:07 49.61827 3.30942 27624 ft 468 kts 228°
2026-04-26 13:07 49.59529 3.27398 28093 ft 466 kts 228°
2026-04-26 13:07 49.57241 3.23874 28517 ft 465 kts 228°
2026-04-26 13:07 49.54954 3.20353 28915 ft 464 kts 228°
2026-04-26 13:08 49.52670 3.16843 29323 ft 463 kts 228°
2026-04-26 13:08 49.50415 3.13384 29760 ft 462 kts 228°
2026-04-26 13:08 49.48067 3.10020 30172 ft 463 kts 222°
2026-04-26 13:08 49.45436 3.07144 30522 ft 465 kts 217°
2026-04-26 13:09 49.42728 3.04427 30863 ft 465 kts 216°
2026-04-26 13:09 49.40013 3.01747 31173 ft 464 kts 216°
2026-04-26 13:09 49.34557 2.96331 31253 ft 468 kts 217°
2026-04-26 13:10 49.29122 2.90873 31245 ft 463 kts 217°
2026-04-26 13:10 49.23840 2.85548 31265 ft 462 kts 217°
2026-04-26 13:11 49.19440 2.81119 31261 ft 462 kts 217°
2026-04-26 13:11 49.14093 2.75753 31261 ft 463 kts 217°
2026-04-26 13:12 49.08765 2.70423 31262 ft 463 kts 217°
2026-04-26 13:12 49.03431 2.65099 31267 ft 463 kts 217°
2026-04-26 13:13 48.98028 2.59720 31261 ft 463 kts 217°
2026-04-26 13:13 48.92661 2.54392 31238 ft 463 kts 217°
2026-04-26 13:14 48.87255 2.49037 31240 ft 464 kts 217°
2026-04-26 13:14 48.81836 2.43680 31237 ft 464 kts 217°
2026-04-26 13:15 48.76407 2.38326 31241 ft 465 kts 217°
2026-04-26 13:15 48.71895 2.33887 31240 ft 465 kts 217°
2026-04-26 13:16 48.68241 2.30297 31388 ft 470 kts 217°
2026-04-26 13:16 48.65533 2.27642 31707 ft 468 kts 217°
2026-04-26 13:16 48.62810 2.24976 32082 ft 466 kts 217°
2026-04-26 13:16 48.60090 2.22318 32474 ft 463 kts 216°
2026-04-26 13:17 48.54353 2.18245 33143 ft 469 kts 199°
2026-04-26 13:17 48.51162 2.17118 33233 ft 474 kts 195°
2026-04-26 13:18 48.41450 2.14208 33219 ft 471 kts 195°
2026-04-26 13:19 48.31901 2.11144 33232 ft 468 kts 195°
2026-04-26 13:19 48.25408 2.10022 33220 ft 473 kts 181°
2026-04-26 13:20 48.18826 2.10572 33229 ft 474 kts 179°
2026-04-26 13:20 48.12231 2.11192 33232 ft 475 kts 179°
2026-04-26 13:21 48.05615 2.11754 33239 ft 477 kts 180°
2026-04-26 13:21 47.99013 2.12274 33240 ft 479 kts 180°
2026-04-26 13:22 47.92332 2.12790 33242 ft 481 kts 180°
2026-04-26 13:22 47.85630 2.13308 33241 ft 483 kts 180°
2026-04-26 13:23 47.78915 2.13828 33234 ft 483 kts 180°
2026-04-26 13:23 47.72195 2.14348 33227 ft 483 kts 179°
2026-04-26 13:24 47.65475 2.14866 33223 ft 483 kts 179°
2026-04-26 13:24 47.58762 2.15383 33211 ft 483 kts 179°
2026-04-26 13:25 47.52056 2.15898 33207 ft 482 kts 179°
2026-04-26 13:25 47.45395 2.16409 33201 ft 482 kts 179°
2026-04-26 13:26 47.38691 2.16921 33204 ft 481 kts 179°
2026-04-26 13:26 47.31995 2.17433 33198 ft 481 kts 179°
2026-04-26 13:27 47.25311 2.17942 33199 ft 481 kts 179°
2026-04-26 13:27 47.18664 2.18451 33198 ft 481 kts 179°
2026-04-26 13:28 47.11973 2.18959 33200 ft 481 kts 179°
2026-04-26 13:28 47.05347 2.20426 33199 ft 484 kts 166°
2026-04-26 13:29 46.98853 2.23127 33196 ft 485 kts 165°
2026-04-26 13:29 46.92356 2.25877 33195 ft 486 kts 165°
2026-04-26 13:30 46.85854 2.28564 33196 ft 486 kts 165°
2026-04-26 13:30 46.79368 2.31199 33194 ft 486 kts 165°
2026-04-26 13:31 46.72842 2.33834 33190 ft 487 kts 165°
2026-04-26 13:31 46.66311 2.36466 33192 ft 487 kts 165°
2026-04-26 13:32 46.59770 2.39098 33194 ft 487 kts 165°
2026-04-26 13:32 46.54344 2.41276 33191 ft 487 kts 165°
2026-04-26 13:33 46.47804 2.43896 33192 ft 487 kts 165°
2026-04-26 13:33 46.40212 2.46930 33192 ft 487 kts 165°
2026-04-26 13:34 46.34730 2.49114 33191 ft 487 kts 165°
2026-04-26 13:34 46.28235 2.51697 33189 ft 487 kts 165°
2026-04-26 13:35 46.21708 2.54286 33190 ft 486 kts 165°
2026-04-26 13:35 46.15175 2.56871 33189 ft 486 kts 165°
2026-04-26 13:36 46.08656 2.59444 33190 ft 486 kts 165°
2026-04-26 13:36 46.02124 2.62016 33180 ft 486 kts 165°
2026-04-26 13:37 45.95609 2.64575 33187 ft 486 kts 165°
2026-04-26 13:37 45.89088 2.67131 33182 ft 485 kts 165°
2026-04-26 13:38 45.82571 2.69678 33177 ft 485 kts 165°
2026-04-26 13:38 45.76055 2.72218 33180 ft 485 kts 165°
2026-04-26 13:39 45.69584 2.74736 33181 ft 485 kts 165°
2026-04-26 13:39 45.63064 2.77266 33183 ft 485 kts 164°
2026-04-26 13:40 45.56552 2.79787 33182 ft 485 kts 164°
2026-04-26 13:40 45.50037 2.82303 33174 ft 485 kts 165°
2026-04-26 13:41 45.43532 2.84809 33180 ft 484 kts 164°
2026-04-26 13:41 45.37032 2.87307 33185 ft 483 kts 164°
2026-04-26 13:42 45.30542 2.89796 33178 ft 483 kts 164°
2026-04-26 13:42 45.24088 2.92266 33181 ft 482 kts 164°
2026-04-26 13:43 45.17601 2.94741 33171 ft 482 kts 165°
2026-04-26 13:43 45.11122 2.97209 33174 ft 481 kts 165°
2026-04-26 13:44 45.04660 2.99663 33174 ft 481 kts 165°
2026-04-26 13:44 44.98194 3.02115 33177 ft 481 kts 165°
2026-04-26 13:45 44.91722 3.04563 33166 ft 480 kts 165°
2026-04-26 13:45 44.85314 3.06982 33172 ft 480 kts 165°
2026-04-26 13:46 44.78818 3.09429 33156 ft 479 kts 165°
2026-04-26 13:46 44.72388 3.11848 33159 ft 479 kts 165°
2026-04-26 13:46 44.69139 3.13069 32561 ft 485 kts 165°
2026-04-26 13:47 44.65887 3.14288 31906 ft 482 kts 165°
2026-04-26 13:47 44.62690 3.15497 31177 ft 483 kts 163°
2026-04-26 13:47 44.59497 3.17143 30418 ft 483 kts 154°
2026-04-26 13:47 44.56584 3.19350 29596 ft 482 kts 149°
2026-04-26 13:48 44.53690 3.21729 28720 ft 482 kts 148°
2026-04-26 13:48 44.50795 3.24132 27842 ft 482 kts 148°
2026-04-26 13:48 44.47906 3.26513 26939 ft 482 kts 149°
2026-04-26 13:48 44.45004 3.28876 26157 ft 481 kts 149°
2026-04-26 13:49 44.42124 3.31198 25532 ft 475 kts 149°
2026-04-26 13:49 44.39276 3.33482 24893 ft 470 kts 149°
2026-04-26 13:49 44.36453 3.35739 24262 ft 466 kts 149°
2026-04-26 13:49 44.33645 3.37983 23597 ft 462 kts 149°
2026-04-26 13:50 44.30888 3.40188 22874 ft 458 kts 149°
2026-04-26 13:50 44.28103 3.42413 22199 ft 453 kts 150°
2026-04-26 13:50 44.25380 3.44582 21570 ft 448 kts 150°
2026-04-26 13:50 44.22719 3.46701 20983 ft 443 kts 150°
2026-04-26 13:51 44.20054 3.48818 20365 ft 439 kts 150°
2026-04-26 13:51 44.17412 3.50914 19735 ft 435 kts 150°
2026-04-26 13:51 44.14789 3.52992 19125 ft 432 kts 150°
2026-04-26 13:51 44.12181 3.55053 18448 ft 431 kts 151°
2026-04-26 13:52 44.09581 3.57095 17739 ft 428 kts 151°
2026-04-26 13:52 44.06994 3.59123 17078 ft 424 kts 151°
2026-04-26 13:52 44.04425 3.61138 16452 ft 420 kts 151°
2026-04-26 13:52 44.01919 3.63103 15856 ft 416 kts 151°
2026-04-26 13:53 43.99409 3.65072 15248 ft 412 kts 151°
2026-04-26 13:53 43.96930 3.67016 14662 ft 408 kts 151°
2026-04-26 13:53 43.94465 3.68948 14072 ft 404 kts 151°
2026-04-26 13:53 43.92021 3.70863 13448 ft 401 kts 151°
2026-04-26 13:54 43.89604 3.72753 12816 ft 398 kts 151°
2026-04-26 13:54 43.87202 3.74630 12215 ft 394 kts 151°
2026-04-26 13:54 43.85627 3.75860 11829 ft 392 kts 151°
2026-04-26 13:55 43.82843 3.78034 11323 ft 384 kts 150°
2026-04-26 13:55 43.81327 3.79217 11227 ft 374 kts 150°
2026-04-26 13:55 43.76214 3.83199 10843 ft 347 kts 150°
2026-04-26 13:56 43.74143 3.84814 10710 ft 337 kts 150°
2026-04-26 13:56 43.72152 3.86362 10563 ft 328 kts 150°
2026-04-26 13:56 43.70190 3.87887 10434 ft 320 kts 150°
2026-04-26 13:56 43.68270 3.89379 10297 ft 312 kts 150°
2026-04-26 13:57 43.66407 3.90826 10171 ft 304 kts 150°
2026-04-26 13:57 43.64590 3.92237 10076 ft 295 kts 150°
2026-04-26 13:57 43.62819 3.93608 9755 ft 295 kts 150°
2026-04-26 13:57 43.61040 3.94983 9434 ft 290 kts 150°
2026-04-26 13:58 43.59292 3.96338 9107 ft 286 kts 148°
2026-04-26 13:58 43.57852 3.98177 8779 ft 283 kts 122°
2026-04-26 13:58 43.57054 4.00615 8531 ft 277 kts 107°
2026-04-26 13:58 43.56499 4.03152 8250 ft 276 kts 104°
2026-04-26 13:59 43.55976 4.05691 7967 ft 275 kts 104°
2026-04-26 13:59 43.55450 4.08233 7700 ft 275 kts 104°
2026-04-26 13:59 43.54922 4.10755 7393 ft 276 kts 104°
2026-04-26 14:00 43.53309 4.18364 6590 ft 276 kts 104°
2026-04-26 14:00 43.52771 4.20866 6488 ft 269 kts 104°
2026-04-26 14:00 43.52413 4.22527 6390 ft 266 kts 104°
2026-04-26 14:01 43.51726 4.25711 6234 ft 257 kts 104°
2026-04-26 14:01 43.51220 4.28047 6073 ft 253 kts 104°
2026-04-26 14:01 43.50716 4.30362 5883 ft 251 kts 103°
2026-04-26 14:01 43.50315 4.32674 5635 ft 247 kts 90°
2026-04-26 14:02 43.50522 4.35008 5297 ft 245 kts 73°
2026-04-26 14:02 43.50922 4.37287 5104 ft 240 kts 75°
2026-04-26 14:02 43.51255 4.39497 4813 ft 237 kts 76°
2026-04-26 14:02 43.51837 4.41528 4594 ft 222 kts 46°
2026-04-26 14:03 43.53084 4.42536 4456 ft 204 kts 11°
2026-04-26 14:03 43.54470 4.42750 4249 ft 197 kts
2026-04-26 14:03 43.55839 4.42845 3950 ft 196 kts
2026-04-26 14:03 43.57192 4.42879 3743 ft 193 kts 359°
2026-04-26 14:04 43.58538 4.42842 3447 ft 195 kts 358°
2026-04-26 14:04 43.59900 4.42772 3191 ft 196 kts 358°
2026-04-26 14:04 43.61265 4.42677 2953 ft 195 kts 356°
2026-04-26 14:04 43.62611 4.42582 2736 ft 191 kts 358°
2026-04-26 14:05 43.63487 4.42518 2504 ft 190 kts 357°
2026-04-26 14:05 43.65236 4.42368 2277 ft 192 kts 356°
2026-04-26 14:05 43.66579 4.42269 1975 ft 194 kts 358°
2026-04-26 14:05 43.67909 4.42187 1665 ft 189 kts 358°
2026-04-26 14:06 43.68491 4.42151 1527 ft 185 kts 358°
2026-04-26 14:06 43.69727 4.42070 1336 ft 169 kts 358°
2026-04-26 14:06 43.70859 4.41984 1102 ft 159 kts 358°
2026-04-26 14:06 43.71954 4.41901 886 ft 156 kts 359°
2026-04-26 14:07 43.73039 4.41825 633 ft 157 kts 359°
2026-04-26 14:07 43.74137 4.41750 426 ft 162 kts 358°
2026-04-26 14:07 43.75249 4.41670 315 ft 156 kts 358°
2026-04-26 14:07 43.76145 4.41607 311 ft 76 kts 357°
2026-04-26 14:08 43.76360 4.41622 311 ft 18 kts 46°
2026-04-26 14:08 43.76382 4.41764 312 ft 15 kts 87°
2026-04-26 14:08 43.76387 4.41906 311 ft 14 kts 88°
2026-04-26 14:08 43.76332 4.41989 310 ft 12 kts 174°
2026-04-26 14:09 43.76283 4.42038 311 ft 8 kts 131°
2026-04-26 14:09 43.76268 4.42060 311 ft 0 kts 132°